Vorticity
4 1 3 1 -2 -0 11 6 6 7 8 7 6 6 7 7 7 7 6 8 7 9 8 9 9 10 10 10 9 8 7 7 7 7 5 6 7 6 6 5 5 4 5
2 2 5 -0 -2 2 4 11 5 7 6 6 7 7 7 8 8 7 7 6 8 10 7 7 9 10 10 10 7 7 8 6 7 7 7 7 6 5 4 5 5 7 7
3 2 4 2 -1 1 -0 2 10 10 9 8 8 8 7 8 8 8 7 6 8 9 5 5 6 6 9 12 10 9 8 8 8 8 6 6 5 5 6 7 6 7 8
4 3 3 2 -0 -1 0 -0 -0 9 9 6 6 8 8 8 7 8 9 8 7 7 7 7 6 6 6 6 6 6 6 6 6 6 8 6 7 8 8 8 7 7 7
5 5 1 2 1 -1 1 -1 0 -1 12 8 7 4 5 8 9 8 8 9 9 8 8 7 7 7 7 7 8 7 7 7 8 9 9 9 7 7 6 5 5 5 6
7 4 1 1 2 -1 1 0 0 1 0 13 6 9 6 4 5 8 9 8 7 7 7 7 7 7 7 7 7 6 6 6 7 6 6 6 6 6 6 7 7 7 7
10 8 3 2 3 -0 -2 2 0 2 1 3 12 4 2 6 6 4 4 4 5 6 7 7 8 7 8 7 8 8 8 8 7 9 8 8 8 8 7 7 6 6 6
8 15 4 3 1 1 -1 1 0 2 -1 3 4 9 8 6 3 4 4 5 5 6 5 5 5 4 4 3 3 3 3 4 3 5 4 5 6 6 6 7 7 7 7
14 14 7 3 3 3 2 0 0 1 2 3 2 2 4 6 7 5 4 4 4 4 3 3 4 4 3 3 4 5 6 5 6 5 4 3 4 5 6 7 6 6 7
7 10 9 6 4 5 6 4 1 1 0 0 2 3 2 1 4 7 6 3 2 3 3 3 2 3 2 2 2 2 2 2 4 3 6 9 7 6 4 4 5 6 6
3 4 10 10 7 6 5 5 4 3 1 -1 2 1 0 -0 0 -0 3 3 5 3 2 4 3 2 2 3 2 2 3 3 5 3 4 4 9 7 9 7 6 6 7
2 2 3 4 4 8 8 8 7 6 5 3 0 1 1 1 -2 3 1 2 2 1 2 4 3 2 3 3 2 3 2 2 4 4 3 3 6 7 7 7 7 6 6
7 10 9 5 1 0 6 10 8 7 6 6 5 3 2 2 2 2 1 2 1 2 2 1 2 2 3 4 4 4 3 3 4 5 4 3 3 9 7 8 7 6 7
6 4 7 8 12 13 9 4 1 8 7 7 5 5 4 4 3 3 3 3 2 3 3 3 3 1 -0 1 3 5 5 4 3 6 5 4 2 8 8 8 7 6 7
4 5 1 2 3 6 8 7 6 7 8 8 8 7 5 4 5 7 0 3 3 3 4 3 2 3 4 -2 2 2 4 6 5 5 6 5 3 6 7 7 7 7 7
-0 1 2 3 4 3 3 6 7 9 7 4 6 7 8 9 7 5 5 5 3 3 5 4 4 4 5 4 4 2 -0 2 3 6 6 7 4 5 7 7 7 7 7
3 0 1 3 1 2 3 6 4 5 6 6 8 7 6 6 10 10 9 6 8 10 7 6 4 5 4 4 6 6 5 3 3 3 5 8 5 3 6 7 7 6 7
9 8 5 2 -0 1 3 4 4 4 5 7 11 7 5 2 3 5 5 7 5 6 8 11 12 11 11 9 8 6 5 5 4 4 4 7 6 3 6 7 7 7 7
7 7 7 8 9 12 7 10 5 4 3 3 4 4 4 2 1 1 4 9 8 8 4 2 3 6 7 8 11 10 7 5 5 5 5 7 7 4 5 6 6 7 7
8 6 4 3 4 4 5 6 4 3 6 6 5 3 3 4 3 4 4 3 8 7 8 7 4 5 3 3 3 5 5 6 6 6 6 5 9 6 4 6 6 6 7
6 7 8 6 2 -1 -0 1 5 7 5 3 4 1 1 1 4 2 0 3 6 5 7 4 6 7 9 6 4 4 7 7 6 5 7 7 8 9 5 6 7 6 6
11 9 10 9 8 10 12 10 6 4 4 4 6 5 5 4 3 6 7 7 5 5 6 6 6 5 9 9 6 6 8 9 9 10 9 8 9 9 5 8 8 7 7
7 8 7 9 9 9 8 8 9 10 9 8 9 10 12 14 12 8 9 11 13 12 8 5 7 6 7 5 7 5 6 5 5 3 7 9 6 6 6 9 12 11 11
8 10 11 10 10 10 10 11 11 12 12 11 8 8 8 9 11 11 10 9 9 10 13 11 5 6 6 6 4 4 3 6 5 4 4 5 8 8 7 7 9 10 3
12 13 13 12 11 12 14 13 12 12 12 14 16 16 16 16 15 16 17 17 8 7 9 14 13 11 8 5 -1 2 3 5 3 6 5 4 6 6 8 8 8 2 6
15 13 12 11 12 11 10 9 9 9 9 9 9 8 7 8 8 7 6 7 9 16 9 10 12 12 14 14 9 12 12 15 12 7 7 6 8 8 5 9 1 6 2
Height
3192 3193 3194 3196 3196 3197 3197 3196 3195 3194 3193 3192 3191 3191 3190 3189 3188 3187 3187 3187 3185 3184 3184 3184 3184 3184 3185 3186 3187 3188 3187 3188 3187 3188 3188 3188 3188 3188 3188 3188 3188 3187 3187
3191 3192 3194 3196 3197 3197 3198 3197 3196 3195 3194 3193 3192 3191 3191 3190 3189 3189 3188 3187 3187 3185 3185 3186 3186 3186 3186 3187 3187 3187 3188 3188 3188 3189 3189 3188 3188 3188 3188 3188 3188 3187 3187
3190 3192 3194 3196 3197 3197 3198 3197 3196 3195 3194 3194 3193 3192 3192 3191 3190 3190 3189 3189 3188 3187 3188 3187 3187 3187 3187 3187 3188 3188 3189 3189 3189 3189 3189 3189 3189 3188 3188 3187 3187 3187 3186
3189 3191 3194 3195 3196 3197 3197 3196 3196 3196 3195 3195 3194 3193 3192 3192 3192 3191 3191 3190 3190 3189 3189 3189 3189 3189 3189 3189 3189 3189 3190 3190 3190 3191 3191 3189 3189 3188 3188 3187 3187 3186 3186
3188 3191 3193 3194 3195 3196 3196 3196 3196 3196 3197 3196 3195 3195 3194 3194 3193 3193 3192 3192 3191 3191 3191 3191 3191 3191 3191 3191 3191 3191 3191 3190 3190 3190 3190 3189 3189 3188 3188 3187 3187 3186 3186
3187 3189 3192 3193 3194 3195 3195 3196 3197 3197 3198 3197 3197 3197 3196 3196 3195 3195 3194 3194 3194 3193 3193 3193 3193 3193 3192 3192 3192 3191 3191 3191 3191 3191 3190 3190 3189 3188 3187 3187 3187 3186 3186
3186 3188 3190 3192 3193 3194 3195 3196 3197 3197 3197 3199 3199 3198 3198 3198 3197 3197 3196 3196 3196 3196 3195 3195 3194 3194 3194 3194 3193 3193 3193 3193 3192 3192 3191 3190 3189 3189 3188 3187 3186 3185 3185
3185 3186 3188 3190 3192 3193 3194 3196 3197 3198 3198 3197 3198 3199 3199 3199 3198 3198 3198 3198 3198 3198 3197 3197 3197 3197 3197 3196 3195 3195 3194 3194 3194 3193 3192 3191 3190 3189 3188 3187 3186 3185 3185
3182 3184 3186 3189 3191 3192 3193 3195 3196 3197 3198 3197 3197 3198 3199 3200 3199 3200 3199 3199 3199 3199 3199 3199 3198 3198 3198 3197 3197 3196 3195 3195 3194 3193 3192 3191 3191 3189 3188 3187 3186 3184 3184
3181 3183 3185 3187 3189 3191 3192 3194 3195 3196 3197 3197 3197 3197 3198 3199 3199 3200 3200 3200 3200 3200 3199 3199 3199 3199 3199 3198 3198 3197 3197 3196 3195 3194 3193 3191 3191 3189 3188 3187 3185 3184 3183
3181 3182 3184 3185 3187 3189 3190 3192 3193 3195 3196 3196 3197 3197 3197 3197 3198 3198 3199 3200 3200 3199 3199 3199 3199 3199 3198 3198 3197 3197 3196 3195 3195 3194 3193 3191 3190 3188 3187 3186 3184 3183 3182
3179 3181 3182 3184 3185 3187 3188 3189 3191 3192 3194 3195 3196 3196 3196 3196 3196 3196 3197 3198 3198 3198 3198 3198 3198 3198 3198 3197 3196 3195 3195 3195 3194 3193 3192 3190 3188 3186 3186 3184 3183 3182 3181
3175 3178 3180 3182 3183 3185 3186 3187 3188 3189 3190 3192 3193 3193 3194 3194 3195 3195 3196 3196 3196 3196 3196 3197 3197 3197 3196 3196 3195 3194 3193 3192 3192 3191 3190 3188 3187 3185 3183 3182 3181 3180 3179
3173 3174 3176 3179 3180 3182 3184 3184 3184 3185 3187 3188 3189 3190 3190 3192 3193 3193 3193 3193 3193 3193 3193 3194 3194 3194 3194 3193 3192 3192 3191 3190 3190 3188 3187 3185 3184 3183 3181 3180 3179 3178 3176
3170 3172 3173 3175 3176 3178 3180 3180 3181 3182 3184 3185 3185 3186 3187 3187 3188 3190 3190 3189 3189 3190 3190 3190 3190 3190 3189 3189 3190 3189 3187 3186 3186 3185 3184 3183 3181 3180 3178 3177 3176 3175 3174
3168 3169 3170 3172 3173 3174 3176 3176 3177 3179 3180 3181 3181 3181 3182 3182 3184 3185 3185 3186 3186 3186 3186 3186 3186 3185 3185 3184 3184 3183 3183 3181 3182 3181 3180 3179 3178 3177 3175 3173 3172 3171 3171
3164 3166 3167 3168 3170 3171 3171 3172 3173 3173 3174 3175 3176 3177 3177 3177 3177 3178 3179 3180 3181 3181 3180 3180 3180 3180 3180 3180 3180 3178 3177 3176 3175 3176 3176 3175 3174 3173 3171 3170 3168 3167 3167
3158 3159 3164 3165 3165 3166 3167 3167 3168 3169 3169 3170 3171 3172 3172 3173 3173 3173 3173 3175 3175 3174 3174 3173 3173 3174 3174 3174 3173 3173 3172 3171 3168 3170 3170 3170 3170 3168 3167 3165 3164 3163 3162
3152 3153 3155 3157 3161 3162 3163 3162 3163 3164 3164 3164 3165 3166 3167 3169 3169 3168 3168 3168 3169 3168 3168 3167 3167 3167 3168 3167 3167 3166 3165 3165 3164 3160 3163 3164 3164 3163 3162 3160 3159 3159 3158
3147 3148 3149 3149 3151 3152 3154 3156 3157 3158 3159 3159 3159 3159 3160 3161 3162 3162 3162 3162 3161 3161 3161 3161 3160 3160 3160 3161 3159 3159 3158 3159 3157 3157 3154 3156 3157 3157 3156 3155 3153 3153 3152
3140 3141 3145 3147 3146 3145 3144 3145 3148 3151 3154 3155 3155 3156 3155 3154 3153 3153 3154 3156 3154 3153 3154 3154 3153 3153 3153 3153 3151 3150 3150 3150 3150 3150 3148 3146 3149 3150 3150 3149 3147 3146 3146
3135 3136 3137 3139 3141 3142 3143 3143 3142 3141 3142 3146 3148 3150 3151 3149 3147 3145 3145 3145 3146 3145 3144 3145 3146 3144 3145 3145 3144 3142 3140 3142 3143 3143 3142 3141 3139 3140 3142 3142 3141 3139 3138
3128 3130 3130 3131 3133 3134 3134 3135 3136 3136 3135 3136 3137 3138 3140 3140 3140 3138 3136 3135 3135 3136 3136 3136 3135 3135 3136 3136 3136 3135 3131 3131 3133 3135 3134 3134 3133 3131 3131 3133 3133 3133 3132
3121 3122 3124 3124 3125 3126 3127 3128 3128 3128 3128 3128 3127 3128 3128 3129 3130 3130 3128 3127 3125 3126 3126 3127 3127 3125 3124 3126 3126 3126 3126 3124 3123 3123 3126 3125 3124 3124 3123 3123 3123 3122 3123
3114 3115 3116 3117 3117 3118 3119 3120 3120 3120 3120 3120 3119 3117 3119 3120 3120 3121 3121 3120 3118 3117 3116 3117 3117 3116 3116 3114 3115 3116 3115 3115 3114 3114 3114 3115 3115 3114 3114 3114 3113 3111 3113
3107 3108 3109 3110 3110 3111 3112 3112 3112 3113 3113 3112 3112 3111 3110 3110 3111 3111 3111 3110 3110 3108 3107 3107 3107 3106 3105 3104 3103 3103 3103 3103 3103 3102 3102 3103 3103 3103 3103 3103 3102 3098 3097